This demonstration page uses our WeatherBlox Daily Observations layout. Learn more.

Left ArrowRight Arrow

44.8408, -93.29828

Hourly Observations for August 16, 2017

Temp ( °F °C ) Dew Point ( °F °C ) Humidity (%) Winds ( mph kmh ) Pressure ( in mb ) Visibility ( mi km ) Precip ( " mm )
12:53 am 00:53 Cloudy 67 19.4 60 15.6 79 79 E 7 11 29.93 1014 10 16 0.00 0.00
1:53 am 01:53 Mostly Cloudy 67 19.4 61 16.1 81 81 SE 5 7 29.94 1014 10 16 0.00 0.00
2:53 am 02:53 Cloudy with Light Rain 66 18.9 61 16.1 84 84 S 12 19 29.96 1014 5 8 0.01 0.25
3:53 am 03:53 Cloudy with Rain 64 17.8 61 16.1 90 90 SE 10 17 29.95 1014 4 6 0.36 9.14
4:46 am 04:46 Cloudy with Light Rain 65 18.3 62 16.7 90 90 ESE 12 19 29.94 1014 10 16 0.08 2.03
4:53 am 04:53 Cloudy with Light Rain 65 18.3 62 16.7 90 90 ESE 10 17 29.93 1013 10 16 0.08 2.03
4:59 am 04:59 Cloudy with Light Rain 65 18.3 62 16.7 90 90 ESE 12 19 29.94 1014 9 14 0.00 0.03
5:53 am 05:53 Cloudy with Light Rain 66 18.9 63 17.2 90 90 ESE 12 19 29.90 1013 10 16 0.00 0.03
6:43 am 06:43 Cloudy with Light Rain 66 18.9 63 17.2 90 90 SE 13 20 29.91 1013 7 11 0.00 0.03
6:53 am 06:53 Cloudy with Rain 66 18.9 63 17.2 90 90 SE 9 15 29.91 1013 5 8 0.01 0.25
7:53 am 07:53 Cloudy 66 18.9 63 17.2 90 90 SE 13 20 29.91 1013 8 13 0.04 1.02
8:53 am 08:53 Cloudy with Light Rain 67 19.4 64 17.8 91 91 SE 15 24 29.89 1012 8 13 0.00 0.03
9:15 am 09:15 Cloudy 67 19.4 63 17.2 87 87 SE 12 19 29.91 1013 9 14 0.00 0.03
9:39 am 09:39 Cloudy 67 19.4 63 17.2 87 87 SE 14 22 29.91 1013 10 16 0.00 0.03
9:53 am 09:53 Cloudy 67 19.4 63 17.2 87 87 SE 13 20 29.90 1012 9 14 0.00 0.03
10:53 am 10:53 Cloudy 68 20 63 17.2 84 84 SE 14 22 29.89 1012 10 16 0.00 0.00
11:28 am 11:28 Cloudy 70 21.1 63 17.2 79 79 SE 12 19 29.88 1012 10 16 0.00 0.00
11:53 am 11:53 Cloudy 71 21.7 64 17.8 79 79 SE 9 15 29.87 1012 10 16 0.00 0.00
12:00 pm 12:00 Cloudy 71 21.7 64 17.8 79 79 ESE 13 20 29.88 1012 10 16 0.00 0.00
12:53 pm 12:53 Cloudy 72 22.2 64 17.8 76 76 ESE 9 15 29.85 1011 10 16 0.00 0.00
1:00 pm 13:00 Cloudy 72 22.2 64 17.8 76 76 ESE 10 17 29.83 1010 10 16 0.00 0.00
1:53 pm 13:53 Cloudy 75 23.9 66 18.9 74 74 ESE 12 19 29.84 1011 10 16 0.00 0.00
2:19 pm 14:19 Cloudy 75 23.9 66 18.9 74 74 ESE 9 15 29.80 1009 10 16 0.00 0.00
2:53 pm 14:53 Cloudy 76 24.4 67 19.4 74 74 ESE 12 19 29.80 1009 10 16 0.00 0.00
3:53 pm 15:53 Cloudy 78 25.6 67 19.4 69 69 ESE 14 22 29.78 1009 10 16 0.00 0.00
4:07 pm 16:07 Cloudy 78 25.6 67 19.4 69 69 ESE 15 24 29.77 1008 10 16 0.00 0.00
4:53 pm 16:53 Cloudy 78 25.6 68 20 71 71 ESE 10 17 29.75 1007 10 16 0.00 0.00
5:53 pm 17:53 Cloudy 77 25 68 20 74 74 E 16 26 29.70 1006 10 16 0.00 0.00
6:53 pm 18:53 Cloudy with Light Rain 76 24.4 69 20.6 79 79 E 15 24 29.68 1005 8 13 0.00 0.03
7:37 pm 19:37 Cloudy with Heavy Rain 74 23.3 69 20.6 85 85 E 14 22 29.65 1004 3 4 0.10 2.54
7:53 pm 19:53 Cloudy with Rain 74 23.3 69 20.6 85 85 E 15 24 29.65 1004 4 6 0.18 4.57
8:19 pm 20:19 Cloudy with Rain 73 22.8 69 20.6 87 87 E 22 35 29.62 1003 3 4 0.06 1.52
8:23 pm 20:23 Cloudy with Heavy Rain 73 22.8 69 20.6 87 87 E 20 31 29.62 1003 2 3 0.10 2.54
8:28 pm 20:28 Cloudy with Heavy Rain 72 22.2 69 20.6 91 91 E 24 39 29.62 1003 2 3 0.16 4.06
8:35 pm 20:35 Cloudy with Heavy Rain 72 22.2 68 20 87 87 E 20 31 29.62 1003 2 2 0.18 4.57
8:43 pm 20:43 Cloudy with Rain 72 22.2 68 20 87 87 E 15 24 29.59 1002 2 3 0.26 6.60
8:45 pm 20:45 Cloudy with Rain 72 22.2 68 20 87 87 E 13 20 29.62 1003 4 6 0.27 6.86
8:53 pm 20:53 Cloudy with Rain 71 21.7 67 19.4 87 87 SE 16 26 29.62 1003 3 4 0.30 7.62
8:56 pm 20:56 Cloudy with Rain 72 22.2 68 20 87 87 ESE 20 31 29.59 1002 2 3 0.00 0.03
9:01 pm 21:01 Cloudy with Heavy Rain 72 22.2 68 20 87 87 ESE 24 39 29.59 1002 1 2 0.09 2.29
9:08 pm 21:08 Cloudy with Rain 71 21.7 69 20.6 94 94 ESE 23 37 29.59 1002 2 3 0.16 4.06
9:23 pm 21:23 Cloudy with Rain 71 21.7 68 20 90 90 ESE 18 30 29.62 1003 4 6 0.30 7.62
9:33 pm 21:33 Cloudy with Light Rain 71 21.7 67 19.4 87 87 ESE 21 33 29.59 1002 4 6 0.33 8.38
9:38 pm 21:38 Cloudy with Heavy Rain 70 21.1 67 19.4 90 90 ESE 20 31 29.62 1003 2 3 0.35 8.89
9:45 pm 21:45 Cloudy with Heavy Rain 71 21.7 67 19.4 87 87 E 13 20 29.62 1003 2 3 0.60 15.24
9:53 pm 21:53 Cloudy with Rain 70 21.1 67 19.4 90 90 E 8 13 29.63 1004 3 4 0.77 19.56
9:55 pm 21:55 Cloudy with Light Rain 70 21.1 67 19.4 90 90 ENE 9 15 29.62 1003 5 8 0.00 0.03
10:04 pm 22:04 Cloudy 70 21.1 67 19.4 90 90 E 8 13 29.59 1002 8 13 0.00 0.03
10:36 pm 22:36 Cloudy 72 22.2 68 20 87 87 E 9 15 29.59 1002 10 16 0.01 0.25
10:53 pm 22:53 Cloudy 71 21.7 68 20 90 90 E 9 15 29.59 1002 10 16 0.01 0.25
11:11 pm 23:11 Cloudy with Heavy Rain 72 22.2 69 20.6 91 91 ESE 10 17 29.56 1001 2 3 0.07 1.78
11:15 pm 23:15 Cloudy with Heavy Rain 72 22.2 69 20.6 91 91 ESE 13 20 29.56 1001 1 2 0.16 4.06
11:20 pm 23:20 Cloudy with Light Rain 72 22.2 69 20.6 91 91 ESE 8 13 29.56 1001 5 8 0.18 4.57
11:53 pm 23:53 Cloudy 72 22.2 69 20.6 91 91 SE 8 13 29.55 1001 10 16 0.18 4.57

Powered by AerisWeather